Regional Weather Roundup
Issued by NWS

Home | Current Version | Previous Version | Graphics & Text | Print | Product List | Glossary On
Versions: 1 2 3 4 5 6 7 8 9 10 11 12 13 14 15 16 17 18 19 20 21 22 23 24 25 26 27 28 29 30 31 32 33 34 35 36 37 38 39 40 41 42 43 44 45 46 47 48 49 50
000
ASUS43 KDTX 171601
RWRMI
MICHIGAN HOURLY REGIONAL WEATHER ROUNDUP
NATIONAL WEATHER SERVICE DETROIT/PONTIAC MI
1100 AM EST SUN DEC 17 2017

NOTE: "FAIR" INDICATES FEW OR NO CLOUDS BELOW 12,000 FEET WITH NO
SIGNIFICANT WEATHER AND/OR OBSTRUCTION TO VISIBILITY.

MIZ047>049-052>055-059>063-066>070-074>076-081>083-171700-
SOUTHEAST LOWER MICHIGAN

CITY           SKY/WX    TMP DP  RH WIND       PRES   REMARKS
ADRIAN         CLOUDY    29  27  92 E7        30.16F FOG     WCI  22
ALMA           CLOUDY    26  24  89 E12       30.18F WCI  16
ANN ARBOR      CLOUDY    28  25  88 NE6       30.16F WCI  22
BAD AXE        CLOUDY    26  19  72 E7        30.23S WCI  19
CARO           CLOUDY    27  20  77 E8        30.21F WCI  18
DETROIT CITY   CLOUDY    29  26  89 E9        30.20F WCI  20
DETROIT        CLOUDY    32  27  81 E9        30.19F HAZE    WCI  24
FLINT          CLOUDY    26  20  77 E8        30.20F WCI  18
GROSSE ILE     CLOUDY    29  27  90 NE6       30.18F WCI  23
HILLSDALE      FOG       28  28 100 E8        30.11F VSB 1/2 WCI  20
HOWELL         CLOUDY    29  27  93 E10       30.15F FOG     WCI  20

CITY           SKY/WX    TMP DP  RH WIND       PRES   REMARKS
JACKSON        CLOUDY    29  25  85 E10       30.14F FOG     WCI  20
LAMBERTVILLE   CLOUDY    31  29  90 E3        30.16F FOG
LANSING        CLOUDY    27  25  92 E10       30.17F FOG     WCI  17
LAPEER         CLOUDY    26  20  76 SE5       30.20F WCI  21
MASON          CLOUDY    29  25  83 E8        30.15F FOG     WCI  21
MONROE         CLOUDY    31  27  84 NE7       30.16F WCI  24
MT. CLEMENS    CLOUDY    27  25  91 E12       30.20S WCI  17
PONTIAC        CLOUDY    26  22  84 E8        30.16F WCI  18
PORT HOPE        N/A     27  20  75 SE12      30.24S WCI  17
PORT HURON     CLOUDY    25  18  74 E6        30.23F WCI  18
TRI CITIES     CLOUDY    26  22  84 E12       30.22S WCI  16
MIDLAND        CLOUDY    26  22  84 E9        30.22S WCI  17
TROY           CLOUDY    27  23  83 NE8       30.21F WCI  19
SAGINAW HB     CLOUDY    27  21  80 E6        30.22S WCI  20
$$
MIZ043>046-050>051-056>058-064>065-071>073-077>080-171700-
SOUTHWEST LOWER MICHIGAN

CITY           SKY/WX    TMP DP  RH WIND       PRES   REMARKS
BATTLE CREEK   CLOUDY    28  27  96 SE7       30.12F FOG     WCI  21
BENTON HARBOR  CLOUDY    30  25  81 E9        30.10R HAZE    WCI  22
BIG RAPIDS     CLOUDY    23  20  87 E9        30.15F WCI  13
COLDWATER      CLOUDY    28  28 100 SE10      30.12S FOG     WCI  19
HOLLAND        CLOUDY    26  23  88 E10       30.12F FOG     WCI  16
GRAND RAPIDS   CLOUDY    24  23  96 E13       30.14F FOG     WCI  12
IONIA          CLOUDY    26  23  89 E8        30.15F FOG     WCI  17
KALAMAZOO      CLOUDY    29  26  89 E8        30.12F FOG     WCI  21
LUDINGTON      CLOUDY    25  21  83 E10       30.13F WCI  15
MARSHALL       CLOUDY    28  28  99 E8        30.12F FOG     WCI  20
MOUNT PLEASANT CLOUDY    27  21  80 E10       30.18F WCI  17
MUSKEGON       CLOUDY    26  22  84 E16G23    30.13F FOG     WCI  14
SOUTH HAVEN    PTSUNNY   30  27  89 E7        30.10R FOG     WCI  23
$$
MIZ016>042-171700-
NORTHERN LOWER MICHIGAN

CITY           SKY/WX    TMP DP  RH WIND       PRES   REMARKS
ALPENA         CLOUDY    23  21  92 CALM      30.25S
BEAVER ISLAND  CLOUDY    24  20  84 SE6       30.20F WCI  17
BELLAIRE       CLOUDY    23  21  93 CALM      30.22S FOG
CADILLAC       CLOUDY    21  20  96 E9        30.14S WCI  11
CHARLEVOIX     PTSUNNY   20  18  89 E5        30.24F WCI  14
FRANKFORT      CLOUDY    25  20  82 SE6       30.17F WCI  18
GAYLORD        CLOUDY    19  17  92 SE6       30.17S WCI  11
GRAYLING       CLOUDY    20  16  85 E5        30.19F WCI  13
HARBOR SPRINGS CLOUDY    17  12  82 E7        30.23S WCI   7
HOUGHTON LAKE  CLOUDY    22  20  92 E10       30.18F WCI  11
MANISTEE       CLOUDY    26  21  81 E12       30.15S WCI  16
OSCODA         CLOUDY    27  19  73 SE6       30.23F WCI  20
PELLSTON       CLOUDY    12  10  92 CALM      30.24S
ROGERS CITY    CLOUDY    22  19  87 CALM      30.25F
TRAVERSE CITY  CLOUDY    23  19  85 SE6       30.18F WCI  16
$$
MIZ007>008-015-171700-
EASTERN UPPER MICHIGAN

CITY           SKY/WX    TMP DP  RH WIND       PRES   REMARKS
KINROSS        FLURRIES   7   4  87 E8        30.25F WCI  -6
MACKINAC ISLAN CLOUDY    21  18  88 SE5       30.22F WCI  15
NEWBERRY       CLOUDY    15  14  96 SE9       30.21R WCI   3
S. S. MARIE    CLOUDY     5   1  83 E6        30.26F FOG     WCI  -6
MUNISING         N/A     18  15  88 S6        30.18S WCI  10
$$
MIZ004>006-011>014-085-171700-
CENTRAL UPPER MICHIGAN

CITY           SKY/WX    TMP DP  RH WIND       PRES   REMARKS
MANISTIQUE     CLOUDY    24  18  76 SE7       30.19F WCI  16
ESCANABA       CLOUDY    23  19  85 N6        30.17F WCI  16
MENOMINEE      CLOUDY    30  25  81 SE10      30.15F WCI  21
SAWYER-GWINN   CLOUDY    19  16  86 S7        30.13S WCI  10
$$
MIZ001>003-009>011-084-171700-
WESTERN UPPER MICHIGAN

CITY           SKY/WX    TMP DP  RH WIND       PRES   REMARKS
IRON MOUNTAIN  CLOUDY    20  16  84 CALM      30.11F
HOUGHTON       CLOUDY    22  18  85 S9        30.11S WCI  12
COPPER HARBOR    N/A     26  20  77 CALM      30.13F
IRONWOOD       CLOUDY    24  21  88 S6        30.09S WCI  17
$$

ABBREVIATIONS USED IN REMARKS
   TC - TEMPERATURE IN CELSIUS
  WCI - WIND CHILL INDEX
   HX - HEAT INDEX
  VSB - VISIBILITY




USA.gov is the U.S. government's official web portal to all federal, state and local government web resources and services.